Regional Weather Roundup
Issued by NWS

Home | Current Version | Previous Version | Text Only | Print | Product List | Glossary On
Versions: 1 2 3 4 5 6 7 8 9 10 11 12 13 14 15 16 17 18 19 20 21 22 23 24 25 26 27 28 29 30 31 32 33 34 35 36 37 38 39 40 41 42 43 44 45 46 47 48 49 50
000
ASUS43 KTOP 010508
RWRKS

WEATHER ROUNDUP FOR KANSAS
NATIONAL WEATHER SERVICE GOODLAND KS
1200 AM CDT THU SEP 01 2016

NOTE:  "FAIR" INDICATES FEW OR NO CLOUDS BELOW 12,000 FEET WITH NO
SIGNIFICANT WEATHER AND/OR OBSTRUCTIONS TO VISIBILITY.

KSZ001>006-013>018-027>032-041>047-010600-
NORTHWEST KANSAS

CITY           SKY/WX    TMP DP  RH WIND       PRES   REMARKS
GOODLAND       CLOUDY    65  63  93 SE7       30.26R
HAYS           CLEAR     64  57  77 NE5       30.19R
HILL CITY      CLOUDY    64  63  96 CALM      30.21S
RUSSELL        FOG       66  66 100 NE6       30.17S VSB 1/2
$$

KSZ061>065-074>080-084>089-010600-
SOUTHWEST KANSAS

CITY           SKY/WX    TMP DP  RH WIND       PRES   REMARKS
DODGE CITY     PTCLDY    67  65  93 NE5       30.18S
ELKHART          N/A     65  61  87 E6          N/A
GARDEN CITY    CLOUDY    68  65  90 E8        30.20S
GREAT BEND     MOCLDY    68  61  77 NE3       30.17S
LIBERAL        CLEAR     66  63  88 E5        30.19F
PRATT          CLOUDY    67  65  91 NE6       30.16S
$$

KSZ066>073-081>083-090>101-010600-
SOUTHEAST KANSAS

CITY           SKY/WX    TMP DP  RH WIND       PRES   REMARKS
CHANUTE        MOCLDY    70  68  93 N5        30.11R
COFFEYVILLE    MOCLDY    72  71  97 N6        30.09S
HUTCHINSON     MOCLDY    72  70  93 NE5       30.14F
MEDICINE LODGE   N/A     71  68  90 NE12G21   30.11F
NEWTON         CLOUDY    70  67  90 NE7       30.15S
PARSONS        PTCLDY    71  69  93 CALM      30.11R
WICHITA INTL   LGT RAIN  75  69  81 NE8       30.12S
WICHITA JABRA  CLOUDY    71  70  96 NE6       30.12S
WICHITA MCCONL CLOUDY    74  68  82 E7        30.12S
WINFIELD       CLOUDY    73  69  87 E7        30.12S
$$

KSZ007>012-019>026-033>040-048>060-102>105-010600-
NORTHEAST KANSAS

CITY           SKY/WX    TMP DP  RH WIND       PRES   REMARKS
CONCORDIA      CLEAR     63  59  87 CALM      30.18S
EMPORIA        CLOUDY    69  66  90 NE5       30.14R
LAWRENCE       PTCLDY    63  63 100 NW5       30.14R
MANHATTAN      PTCLDY    61  59  93 SW5       30.15S
MARYSVILLE     CLEAR     61  59  94 CALM      30.17S
OLATHE IND     PTCLDY    68  62  81 NE3       30.14R
OLATHE EXE     PTCLDY    67  62  84 NE6       30.13S
SALINA         PTCLDY    69  63  81 NE3       30.16S
TOPEKA BILLARD CLEAR     64  61  90 CALM      30.14R
TOPEKA FORBES  CLOUDY    67  61  81 N6        30.14R
$$




USA.gov is the U.S. government's official web portal to all federal, state and local government web resources and services.